Погода в Шойне

Россия / Ненецкий автономный округ     67°52′38″N   44°09′17″E
темп.,
°C
ветер,
м/с
пор.,
м/с
влажн.,
%
обл.,
%
осадки,
мм/ч
давл.,
гПа
погр.,
м
18 мая, вт
вт1800:00+4юв44625 0.0 101841
03:00+3юв446676 0.0 101830
06:00+5ююв44696 0.0 101864
09:00+9ю4567100 0.0 1018158
12:00+8ююз5776100 0.0 1017224
15:00+10ююз6970100 0.0 1016230
18:00+11ю5963100 0.0 1014195
21:00+11юв696883 0.0 101379
19 мая, ср
ср1900:00+12ююв71170100 0.0 1010120
03:00+9ю81296100 1.3 1009121
06:00+7ююз81396100 0.4 1008159
09:00+5юз589899 0.4 100989
12:00+5зюз449999 0.1 101065
15:00+6з339668 0.2 101170
18:00+8ссз1191100 0.1 101082
21:00+10вюв239266 0.3 101016
20 мая, чт
чт2000:00+8юв689764 0.0 101074
03:00+8юв799612 0.0 100877
06:00+7ююз468615 0.3 100865
09:00+9ююз7117926 0.3 1008122
12:00+10ююз71284100 0.1 1007156
15:00+10юз6108565 0.2 1006137
18:00+12ююз7108164 0.1 1005154
21:00+11ююз8148697 0.3 1005134
21 мая, пт
пт2100:00+10ююз7138470 0.0 1004110
03:00+9ю568877 0.0 100448
06:00+10ююз61083100 0.0 1002118
09:00+9ююз8138226 0.0 1002167
12:00+10ююз7128460 0.0 1001259
15:00+10юз6884100 0.0 1001139
18:00+8юз8148499 0.0 1000165
21:00+5ююз91488100 0.0 1000162
22 мая, сб
сб2200:00+4юз71287100 0.0 1001146
03:00+3юз7138615 0.0 1002170
06:00+3юз8129011 0.0 1002160
09:00+3з6108739 0.0 1004246
12:00+2зсз7108440 0.0 1007371
15:00+2сз798422 0.0 1010393
18:00+2сз68819 0.0 1012305
21:00+1сз4579100 0.0 1014183